Simultaneous Nadir Overpasses (SNOs) Predictions

Prediction of SNOs between METOP-A and NOAA-19 Satellite Orbit:

Table of predicted SNOs for the next 14.0 days since TLE Epoch: 7/14/2017
Index Date (METOP-A) Time (METOP-A) Lat,Lon (METOP-A) SZA (METOP-A ) Date (NOAA-19) Time (NOAA-19) Lat,Lon (NOAA-19) SZA (NOAA-19 ) Distance(km) Time Diff (sec)
1 07/21/2017 19:48:55 -77.88, 69.86 122.43 07/21/2017 19:47:51 -77.87, 65.60 122.51 99.40 64
2 07/21/2017 20:39:46 77.42,-125.01 57.07 07/21/2017 20:38:47 77.45,-124.98 57.10 3.58 59
3 07/21/2017 21:30:27 -77.45, 42.45 122.89 07/21/2017 21:29:41 -77.41, 42.46 122.93 3.63 46
4 07/21/2017 22:21:07 77.44,-150.25 57.11 07/21/2017 22:20:48 77.43,-150.38 57.09 3.51 19
5 07/21/2017 23:11:49 -77.43, 17.03 122.90 07/21/2017 23:11:43 -77.43, 16.86 122.90 3.94 6
6 07/22/2017 00:02:29 77.42,-175.67 57.10 07/22/2017 00:02:49 77.40,-175.77 57.09 3.01 20
7 07/22/2017 00:53:11 -77.41, -8.40 122.91 07/22/2017 00:53:44 -77.41, -8.53 122.91 3.19 33
8 07/22/2017 01:43:51 77.40, 158.90 57.10 07/22/2017 01:44:50 77.38, 158.83 57.08 2.68 59
9 07/22/2017 02:34:33 -77.39, -33.83 122.91 07/22/2017 02:35:45 -77.39, -33.93 122.91 2.46 72




NCC Satellite Simultaneous Nadir Overpasses (SNOs) Prediction Service
